Dayton Wright, OH

4:18 AM EDT on May 26, 2018 (GMT -0400)
Dayton-Wright Brothers

Weather History for KMGY - June, 2013

Change the Weather History Date:

Wednesday, June 5, 2013

  Actual Average (KFFO) Record (KFFO)
Temperature  
Mean Temperature 67 °F -  
Max Temperature 80 °F 74 °F 91 °F (2005)
Min Temperature 55 °F 55 °F 42 °F (1998)
Cooling Degree Days 2    
Growing Degree Days 17 (Base 50)    
Moisture  
Dew Point 52 °F    
Average Humidity 57    
Maximum Humidity 78    
Minimum Humidity 43    
Precipitation  
Precipitation 0.00 in - - ()
Sea Level Pressure  
Sea Level Pressure 29.99 in    
Wind  
Wind Speed 7 mph (ENE)    
Max Wind Speed 10 mph    
Max Gust Speed -    
Visibility 10 miles    
Events Rain    
Averages and records for this station are not official NWS values.
T = Trace of Precipitation, MM = Missing Value Source: NWS Daily Summary

Daily Weather History Graph

Daily Weather History Graph

Search for Another Location

Airport or City:

Astronomy

Jun. 05, 2013 Rise Set
Actual Time 6:09 AM EDT 9:01 PM EDT
Civil Twilight 5:37 AM EDT 9:33 PM EDT
Nautical Twilight 4:57 AM EDT 10:13 PM EDT
Astronomical Twilight 4:11 AM EDT 11:00 PM EDT
Moon 4:12 AM EDT (6/5) 6:27 PM EDT (6/5)
Length of Visible Light 15h 55m
Length of Day
14h 51m
Waning Crescent, 8% of the Moon is Illuminated
Jun 5
Waning Crescent
Jun 8
New
Jun 16
First Quarter
Jun 23
Full
Jun 30
Last Quarter

Hourly Weather History & Observations

Time (EDT) Temp. Dew Point Humidity Pressure Visibility Wind Dir Wind Speed Gust Speed Precip Events Conditions
12:53 AM 60.1 °F 46.9 °F 62% 30.09 in 10.0 mi ENE 8.1 mph - N/A   Clear
1:53 AM 57.9 °F 46.9 °F 67% 30.09 in 10.0 mi ENE 8.1 mph - N/A   Clear
2:53 AM 57.0 °F 46.9 °F 69% 30.08 in 10.0 mi ENE 8.1 mph - N/A   Clear
3:53 AM 57.0 °F 46.9 °F 69% 30.07 in 10.0 mi ENE 9.2 mph - N/A   Clear
4:53 AM 55.9 °F 46.9 °F 72% 30.06 in 10.0 mi ENE 8.1 mph - N/A   Clear
5:53 AM 55.9 °F 46.0 °F 69% 30.05 in 10.0 mi ENE 8.1 mph - N/A   Clear
6:53 AM 55.9 °F 46.9 °F 72% 30.07 in 10.0 mi ENE 8.1 mph - N/A   Clear
7:53 AM 57.9 °F 48.0 °F 70% 30.07 in 10.0 mi ENE 10.4 mph - N/A   Clear
8:53 AM 64.0 °F 51.1 °F 63% 30.07 in 10.0 mi ENE 6.9 mph - N/A   Clear
9:53 AM 66.9 °F 50.0 °F 54% 30.06 in 10.0 mi ESE 8.1 mph - N/A   Clear
10:53 AM 70.0 °F 52.0 °F 53% 30.03 in 10.0 mi ENE 8.1 mph - N/A   Clear
11:53 AM 73.0 °F 52.0 °F 48% 30.01 in 10.0 mi ENE 8.1 mph - N/A   Clear
12:53 PM 75.0 °F 53.1 °F 46% 30.00 in 10.0 mi Variable 5.8 mph - N/A   Clear
1:53 PM 75.9 °F 54.0 °F 46% 29.99 in 10.0 mi East 3.5 mph - N/A   Clear
2:53 PM 79.0 °F 55.0 °F 44% 29.97 in 10.0 mi SSW 3.5 mph - N/A   Clear
3:53 PM 78.1 °F 54.0 °F 43% 29.95 in 10.0 mi Variable 4.6 mph - N/A   Clear
4:53 PM 79.0 °F 55.0 °F 44% 29.93 in 10.0 mi Calm Calm - N/A   Scattered Clouds
5:53 PM 79.0 °F 57.0 °F 47% 29.91 in 10.0 mi Variable 3.5 mph - N/A   Scattered Clouds
6:53 PM 79.0 °F 55.9 °F 45% 29.88 in 10.0 mi Calm Calm - N/A   Partly Cloudy
7:53 PM 79.0 °F 55.9 °F 45% 29.87 in 10.0 mi Calm Calm - N/A   Mostly Cloudy
8:53 PM 75.9 °F 57.0 °F 52% 29.86 in 10.0 mi Calm Calm - N/A   Overcast
9:53 PM 75.0 °F 57.9 °F 55% 29.86 in 10.0 mi East 3.5 mph - N/A   Overcast
10:53 PM 75.9 °F 55.9 °F 50% 29.88 in 10.0 mi Calm Calm - N/A   Overcast
11:53 PM 70.0 °F 63.0 °F 78% 29.88 in 9.0 mi SSW 8.1 mph - 0.00 in Rain Light Rain